Location: Binningen
(47.7924°N, 8.7261°E)
Time: 14:04:17
(UTC+00:00)

SJ 16-02 - Pass Details

Date: 17 May 2021
Orbit: 606 x 616 km, 75.0° (Epoch: 18 June)

Event Time Altitude Azimuth Distance (km) Brightness Sun altitude
Rises 19:28:24 0° 185° (S) 2,873 4.5 -4.9°
Reaches altitude 10° 19:30:40 10° 181° (S) 1,973 3.6 -5.2°
Maximum altitude 19:34:56 51° 106° (ESE) 780 1.6 -5.8°
Drops below altitude 10° 19:39:15 10° 30° (NNE) 1,988 4.1 -6.3°
Sets 19:41:32 0° 26° (NNE) 2,898 5.0 -6.6°
